Year,Month,Day,Hour,Minute,Value (Times are PST for windspeed in km/hr)
2012,01,25,00,00,20.40
2012,01,25,00,01,17.30
2012,01,25,00,02,23.80
2012,01,25,00,03,25.70
2012,01,25,00,04,23.90
2012,01,25,00,05,18.10
2012,01,25,00,06,17.90
2012,01,25,00,07,13.00
2012,01,25,00,08,10.80
2012,01,25,00,09,19.20
2012,01,25,00,10,15.50
2012,01,25,00,11,21.20
2012,01,25,00,12,18.60
2012,01,25,00,13,17.00
2012,01,25,00,14,5.40
2012,01,25,00,15,11.20
2012,01,25,00,16,16.50
2012,01,25,00,17,16.60
2012,01,25,00,18,11.90
2012,01,25,00,19,11.60
2012,01,25,00,20,14.90
2012,01,25,00,21,12.20
2012,01,25,00,22,9.90
2012,01,25,00,23,15.90
2012,01,25,00,24,15.40
2012,01,25,00,25,14.00
2012,01,25,00,26,15.20
2012,01,25,00,27,19.90
2012,01,25,00,28,14.20
2012,01,25,00,29,22.50
2012,01,25,00,30,21.90
2012,01,25,00,31,24.10
2012,01,25,00,32,27.10
2012,01,25,00,33,21.90
2012,01,25,00,34,15.00
2012,01,25,00,35,11.70
2012,01,25,00,36,13.60
2012,01,25,00,37,12.40
2012,01,25,00,38,9.30
2012,01,25,00,39,10.50
2012,01,25,00,40,7.10
2012,01,25,00,41,15.10
2012,01,25,00,42,14.00
2012,01,25,00,43,21.60
2012,01,25,00,44,17.50
2012,01,25,00,45,18.40
2012,01,25,00,46,15.80
2012,01,25,00,47,18.30
2012,01,25,00,48,21.00
2012,01,25,00,49,14.70
2012,01,25,00,50,7.00
2012,01,25,00,51,15.80
2012,01,25,00,52,17.30
2012,01,25,00,53,6.10
2012,01,25,00,54,5.10
2012,01,25,00,55,9.60
2012,01,25,00,56,12.00
2012,01,25,00,57,23.10
2012,01,25,00,58,23.50
2012,01,25,00,59,13.00
2012,01,25,01,00,15.80
2012,01,25,01,01,17.10
2012,01,25,01,02,18.90
2012,01,25,01,03,18.30
2012,01,25,01,04,25.20
2012,01,25,01,05,13.30
2012,01,25,01,06,17.50
2012,01,25,01,07,21.10
2012,01,25,01,08,16.80
2012,01,25,01,09,18.20
2012,01,25,01,10,12.30
2012,01,25,01,11,17.20
2012,01,25,01,12,21.20
2012,01,25,01,13,23.10
2012,01,25,01,14,16.40
2012,01,25,01,15,12.90
2012,01,25,01,16,13.50
2012,01,25,01,17,20.30
2012,01,25,01,18,15.80
2012,01,25,01,19,24.10
2012,01,25,01,20,23.70
2012,01,25,01,21,23.00
2012,01,25,01,22,25.70
2012,01,25,01,23,24.10
2012,01,25,01,24,22.00
2012,01,25,01,25,21.40
2012,01,25,01,26,23.70
2012,01,25,01,27,19.90
2012,01,25,01,28,11.70
2012,01,25,01,29,17.90
2012,01,25,01,30,14.30
2012,01,25,01,31,22.40
2012,01,25,01,32,19.00
2012,01,25,01,33,20.50
2012,01,25,01,34,12.00
2012,01,25,01,35,12.30
2012,01,25,01,36,15.60
2012,01,25,01,37,13.60
2012,01,25,01,38,11.00
2012,01,25,01,39,14.20
2012,01,25,01,40,13.70
2012,01,25,01,41,11.00
2012,01,25,01,42,8.10
2012,01,25,01,43,10.10
2012,01,25,01,44,12.60
2012,01,25,01,45,15.40
2012,01,25,01,46,11.60
2012,01,25,01,47,12.10
2012,01,25,01,48,14.40
2012,01,25,01,49,10.00
2012,01,25,01,50,5.80
2012,01,25,01,51,11.60
2012,01,25,01,52,21.20
2012,01,25,01,53,25.10
2012,01,25,01,54,15.00
2012,01,25,01,55,14.80
2012,01,25,01,56,14.80
2012,01,25,01,57,21.60
2012,01,25,01,58,9.80
2012,01,25,01,59,9.30
2012,01,25,02,00,6.80
2012,01,25,02,01,10.50
2012,01,25,02,02,17.60
2012,01,25,02,03,14.00
2012,01,25,02,04,4.10
2012,01,25,02,05,3.10
2012,01,25,02,06,15.90
2012,01,25,02,07,10.60
2012,01,25,02,08,8.50
2012,01,25,02,09,10.20
2012,01,25,02,10,1.40
2012,01,25,02,11,6.20
2012,01,25,02,12,9.30
2012,01,25,02,13,6.10
2012,01,25,02,14,8.90
2012,01,25,02,15,7.50
2012,01,25,02,16,6.40
2012,01,25,02,17,6.40
2012,01,25,02,18,7.50
2012,01,25,02,19,21.30
2012,01,25,02,20,17.40
2012,01,25,02,21,9.30
2012,01,25,02,22,11.20
2012,01,25,02,23,12.80
2012,01,25,02,24,11.60
2012,01,25,02,25,1.50
2012,01,25,02,26,6.30
2012,01,25,02,27,5.30
2012,01,25,02,28,7.90
2012,01,25,02,29,10.20
2012,01,25,02,30,6.20
2012,01,25,02,31,5.80
2012,01,25,02,32,5.60
2012,01,25,02,33,5.70
2012,01,25,02,34,11.00
2012,01,25,02,35,7.70
2012,01,25,02,36,4.90
2012,01,25,02,37,5.10
2012,01,25,02,38,5.40
2012,01,25,02,39,3.10
2012,01,25,02,40,3.10
2012,01,25,02,41,7.00
2012,01,25,02,42,7.50
2012,01,25,02,43,10.30
2012,01,25,02,44,11.30
2012,01,25,02,45,6.80
2012,01,25,02,46,7.60
2012,01,25,02,47,5.10
2012,01,25,02,48,5.60
2012,01,25,02,49,5.30
2012,01,25,02,50,3.80
2012,01,25,02,51,5.50
2012,01,25,02,52,6.00
2012,01,25,02,53,2.60
2012,01,25,02,54,5.00
2012,01,25,02,55,3.70
2012,01,25,02,56,12.10
2012,01,25,02,57,7.40
2012,01,25,02,58,4.40
2012,01,25,02,59,2.20
2012,01,25,03,00,1.60
2012,01,25,03,01,2.10
2012,01,25,03,02,4.40
2012,01,25,03,03,4.90
2012,01,25,03,04,1.90
2012,01,25,03,05,1.40
2012,01,25,03,06,0.60
2012,01,25,03,07,3.00
2012,01,25,03,08,10.00
2012,01,25,03,09,9.70
2012,01,25,03,10,10.50
2012,01,25,03,11,9.30
2012,01,25,03,12,10.30
2012,01,25,03,13,11.90
2012,01,25,03,14,7.50
2012,01,25,03,15,5.20
2012,01,25,03,16,9.30
2012,01,25,03,17,10.10
2012,01,25,03,18,5.60
2012,01,25,03,19,11.30
2012,01,25,03,20,9.20
2012,01,25,03,21,7.90
2012,01,25,03,22,11.70
2012,01,25,03,23,8.30
2012,01,25,03,24,11.00
2012,01,25,03,25,10.50
2012,01,25,03,26,8.30
2012,01,25,03,27,12.60
2012,01,25,03,28,9.70
2012,01,25,03,29,7.20
2012,01,25,03,30,8.10
2012,01,25,03,31,4.70
2012,01,25,03,32,4.20
2012,01,25,03,33,6.10
2012,01,25,03,34,7.50
2012,01,25,03,35,5.20
2012,01,25,03,36,4.40
2012,01,25,03,37,5.10
2012,01,25,03,38,4.60
2012,01,25,03,39,5.00
2012,01,25,03,40,0.40
2012,01,25,03,41,6.40
2012,01,25,03,42,6.80
2012,01,25,03,43,4.70
2012,01,25,03,44,4.90
2012,01,25,03,45,4.60
2012,01,25,03,46,8.70
2012,01,25,03,47,4.00
2012,01,25,03,48,6.20
2012,01,25,03,49,3.60
2012,01,25,03,50,2.50
2012,01,25,03,51,3.70
2012,01,25,03,52,3.90
2012,01,25,03,53,1.00
2012,01,25,03,54,7.10
2012,01,25,03,55,6.80
2012,01,25,03,56,6.80
2012,01,25,03,57,7.30
2012,01,25,03,58,6.60
2012,01,25,03,59,4.40
2012,01,25,04,00,5.00
2012,01,25,04,01,5.20
2012,01,25,04,02,4.60
2012,01,25,04,03,3.70
2012,01,25,04,04,1.20
2012,01,25,04,05,0.70
2012,01,25,04,06,0.20
2012,01,25,04,07,0.00
2012,01,25,04,08,0.00
2012,01,25,04,09,1.40
2012,01,25,04,10,0.50
2012,01,25,04,11,2.50
2012,01,25,04,12,2.50
2012,01,25,04,13,2.20
2012,01,25,04,14,1.90
2012,01,25,04,15,1.70
2012,01,25,04,16,2.00
2012,01,25,04,17,1.80
2012,01,25,04,18,1.30
2012,01,25,04,19,2.40
2012,01,25,04,20,4.70
2012,01,25,04,21,5.90
2012,01,25,04,22,9.50
2012,01,25,04,23,4.90
2012,01,25,04,24,6.10
2012,01,25,04,25,4.90
2012,01,25,04,26,6.30
2012,01,25,04,27,3.50
2012,01,25,04,28,6.10
2012,01,25,04,29,5.10
2012,01,25,04,30,6.90
2012,01,25,04,31,8.90
2012,01,25,04,32,4.40
2012,01,25,04,33,6.70
2012,01,25,04,34,3.60
2012,01,25,04,35,4.40
2012,01,25,04,36,8.50
2012,01,25,04,37,10.50
2012,01,25,04,38,5.10
2012,01,25,04,39,10.20
2012,01,25,04,40,8.80
2012,01,25,04,41,5.70
2012,01,25,04,42,4.80
2012,01,25,04,43,1.90
2012,01,25,04,44,2.50
2012,01,25,04,45,6.10
2012,01,25,04,46,2.40
2012,01,25,04,47,0.70
2012,01,25,04,48,2.10
2012,01,25,04,49,0.20
2012,01,25,04,50,4.00
2012,01,25,04,51,6.30
2012,01,25,04,52,3.80
2012,01,25,04,53,1.40
2012,01,25,04,54,0.00
2012,01,25,04,55,0.20
2012,01,25,04,56,0.10
2012,01,25,04,57,1.50
2012,01,25,04,58,3.90
2012,01,25,04,59,3.50
2012,01,25,05,00,2.00
2012,01,25,05,01,2.70
2012,01,25,05,02,4.50
2012,01,25,05,03,6.00
2012,01,25,05,04,5.80
2012,01,25,05,05,5.70
2012,01,25,05,06,1.60
2012,01,25,05,07,2.20
2012,01,25,05,08,4.10
2012,01,25,05,09,6.70
2012,01,25,05,10,5.70
2012,01,25,05,11,3.70
2012,01,25,05,12,2.40
2012,01,25,05,13,0.80
2012,01,25,05,14,4.70
2012,01,25,05,15,0.60
2012,01,25,05,16,0.00
2012,01,25,05,17,1.40
2012,01,25,05,18,5.70
2012,01,25,05,19,3.90
2012,01,25,05,20,4.10
2012,01,25,05,21,1.30
2012,01,25,05,22,0.60
2012,01,25,05,23,0.00
2012,01,25,05,24,0.00
2012,01,25,05,25,0.00
2012,01,25,05,26,0.00
2012,01,25,05,27,0.60
2012,01,25,05,28,0.90
2012,01,25,05,29,0.00
2012,01,25,05,30,0.00
2012,01,25,05,31,0.00
2012,01,25,05,32,0.00
2012,01,25,05,33,0.10
2012,01,25,05,34,0.00
2012,01,25,05,35,0.00
2012,01,25,05,36,0.00
2012,01,25,05,37,0.00
2012,01,25,05,38,0.00
2012,01,25,05,39,0.40
2012,01,25,05,40,1.60
2012,01,25,05,41,0.10
2012,01,25,05,42,0.10
2012,01,25,05,43,0.00
2012,01,25,05,44,0.80
2012,01,25,05,45,2.00
2012,01,25,05,46,0.00
2012,01,25,05,47,0.30
2012,01,25,05,48,0.30
2012,01,25,05,49,0.50
2012,01,25,05,50,1.40
2012,01,25,05,51,0.30
2012,01,25,05,52,1.00
2012,01,25,05,53,0.00
2012,01,25,05,54,0.00
2012,01,25,05,55,0.00
2012,01,25,05,56,0.00
2012,01,25,05,57,0.10
2012,01,25,05,58,0.70
2012,01,25,05,59,0.00
2012,01,25,06,00,0.00
2012,01,25,06,01,0.00
2012,01,25,06,02,0.10
2012,01,25,06,03,1.00
2012,01,25,06,04,0.20
2012,01,25,06,05,0.10
2012,01,25,06,06,1.40
2012,01,25,06,07,1.10
2012,01,25,06,08,0.00
2012,01,25,06,09,0.00
2012,01,25,06,10,2.50
2012,01,25,06,11,3.40
2012,01,25,06,12,3.50
2012,01,25,06,13,4.40
2012,01,25,06,14,6.10
2012,01,25,06,15,8.30
2012,01,25,06,16,10.20
2012,01,25,06,17,11.10
2012,01,25,06,18,11.80
2012,01,25,06,19,10.00
2012,01,25,06,20,15.20
2012,01,25,06,21,16.80
2012,01,25,06,22,12.40
2012,01,25,06,23,15.40
2012,01,25,06,24,13.00
2012,01,25,06,25,11.50
2012,01,25,06,26,17.30
2012,01,25,06,27,18.50
2012,01,25,06,28,11.40
2012,01,25,06,29,12.50
2012,01,25,06,30,11.90
2012,01,25,06,31,16.30
2012,01,25,06,32,19.70
2012,01,25,06,33,21.10
2012,01,25,06,34,16.30
2012,01,25,06,35,17.70
2012,01,25,06,36,16.50
2012,01,25,06,37,20.20
2012,01,25,06,38,10.10
2012,01,25,06,39,15.80
2012,01,25,06,40,17.40
2012,01,25,06,41,14.20
2012,01,25,06,42,15.80
2012,01,25,06,43,16.30
2012,01,25,06,44,13.10
2012,01,25,06,45,9.50
2012,01,25,06,46,13.60
2012,01,25,06,47,16.30
2012,01,25,06,48,13.00
2012,01,25,06,49,16.30
2012,01,25,06,50,16.70
2012,01,25,06,51,15.90
2012,01,25,06,52,12.20
2012,01,25,06,53,17.90
2012,01,25,06,54,13.10
2012,01,25,06,55,9.70
2012,01,25,06,56,7.30
2012,01,25,06,57,8.20
2012,01,25,06,58,12.60
2012,01,25,06,59,14.80
2012,01,25,07,00,13.40
2012,01,25,07,01,14.30
2012,01,25,07,02,15.50
2012,01,25,07,03,15.90
2012,01,25,07,04,17.10
2012,01,25,07,05,9.60
2012,01,25,07,06,9.90
2012,01,25,07,07,8.60
2012,01,25,07,08,6.00
2012,01,25,07,09,15.80
2012,01,25,07,10,17.80
2012,01,25,07,11,13.20
2012,01,25,07,12,10.60
2012,01,25,07,13,9.20
2012,01,25,07,14,13.40
2012,01,25,07,15,7.60
2012,01,25,07,16,9.50
2012,01,25,07,17,12.90
2012,01,25,07,18,13.80
2012,01,25,07,19,18.40
2012,01,25,07,20,22.00
2012,01,25,07,21,19.60
2012,01,25,07,22,20.20
2012,01,25,07,23,15.30
2012,01,25,07,24,18.90
2012,01,25,07,25,20.00
2012,01,25,07,26,16.10
2012,01,25,07,27,14.30
2012,01,25,07,28,16.40
2012,01,25,07,29,18.90
2012,01,25,07,30,17.20
2012,01,25,07,31,12.30
2012,01,25,07,32,15.80
2012,01,25,07,33,15.90
2012,01,25,07,34,10.70
2012,01,25,07,35,17.50
2012,01,25,07,36,12.10
2012,01,25,07,37,12.60
2012,01,25,07,38,14.50
2012,01,25,07,39,12.90
2012,01,25,07,40,12.50
2012,01,25,07,41,12.40
2012,01,25,07,42,7.30
2012,01,25,07,43,8.80
2012,01,25,07,44,3.70
2012,01,25,07,45,10.90
2012,01,25,07,46,9.70
2012,01,25,07,47,9.90
2012,01,25,07,48,9.40
2012,01,25,07,49,12.90
2012,01,25,07,50,13.70
2012,01,25,07,51,11.60
2012,01,25,07,52,10.40
2012,01,25,07,53,3.80
2012,01,25,07,54,5.10
2012,01,25,07,55,5.40
2012,01,25,07,56,6.00
2012,01,25,07,57,5.10
2012,01,25,07,58,4.20
2012,01,25,07,59,4.30
2012,01,25,08,00,5.10
2012,01,25,08,01,5.40
2012,01,25,08,02,4.70
2012,01,25,08,03,10.30
2012,01,25,08,04,9.70
2012,01,25,08,05,6.70
2012,01,25,08,06,5.80
2012,01,25,08,07,6.00
2012,01,25,08,08,8.20
2012,01,25,08,09,10.00
2012,01,25,08,10,9.30
2012,01,25,08,11,8.70
2012,01,25,08,12,10.60
2012,01,25,08,13,2.80
2012,01,25,08,14,5.30
2012,01,25,08,15,3.40
2012,01,25,08,16,4.90
2012,01,25,08,17,3.70
2012,01,25,08,18,4.40
2012,01,25,08,19,2.70
2012,01,25,08,20,3.80
2012,01,25,08,21,0.60
2012,01,25,08,22,0.00
2012,01,25,08,23,0.60
2012,01,25,08,24,1.00
2012,01,25,08,25,0.30
2012,01,25,08,26,0.20
2012,01,25,08,27,0.10
2012,01,25,08,28,0.80
2012,01,25,08,29,0.00
2012,01,25,08,30,0.30
2012,01,25,08,31,0.50
2012,01,25,08,32,0.20
2012,01,25,08,33,0.00
2012,01,25,08,34,0.00
2012,01,25,08,35,0.00
2012,01,25,08,36,0.00
2012,01,25,08,37,0.10
2012,01,25,08,38,0.50
2012,01,25,08,39,1.30
2012,01,25,08,40,5.10
2012,01,25,08,41,4.80
2012,01,25,08,42,3.50
2012,01,25,08,43,5.20
2012,01,25,08,44,4.90
2012,01,25,08,45,1.80
2012,01,25,08,46,1.80
2012,01,25,08,47,0.20
2012,01,25,08,48,2.20
2012,01,25,08,49,1.60
2012,01,25,08,50,2.70
2012,01,25,08,51,3.10
2012,01,25,08,52,3.00
2012,01,25,08,53,0.60
2012,01,25,08,54,0.80
2012,01,25,08,55,0.70
2012,01,25,08,56,0.60
2012,01,25,08,57,1.50
2012,01,25,08,58,0.90
2012,01,25,08,59,0.60
2012,01,25,09,00,0.00
2012,01,25,09,01,0.20
2012,01,25,09,02,0.40
2012,01,25,09,03,0.70
2012,01,25,09,04,0.10
2012,01,25,09,05,0.00
2012,01,25,09,06,0.00
2012,01,25,09,07,0.00
2012,01,25,09,08,0.00
2012,01,25,09,09,0.00
2012,01,25,09,10,0.00
2012,01,25,09,11,0.20
2012,01,25,09,12,0.00
2012,01,25,09,13,0.00
2012,01,25,09,14,0.00
2012,01,25,09,15,0.00
2012,01,25,09,16,0.00
2012,01,25,09,17,0.00
2012,01,25,09,18,0.00
2012,01,25,09,19,0.00
2012,01,25,09,20,0.00
2012,01,25,09,21,0.00
2012,01,25,09,22,0.00
2012,01,25,09,23,0.10
2012,01,25,09,24,0.10
2012,01,25,09,25,0.50
2012,01,25,09,26,1.70
2012,01,25,09,27,1.40
2012,01,25,09,28,3.80
2012,01,25,09,29,4.30
2012,01,25,09,30,3.50
2012,01,25,09,31,1.40
2012,01,25,09,32,1.40
2012,01,25,09,33,1.60
2012,01,25,09,34,3.00
2012,01,25,09,35,4.10
2012,01,25,09,36,4.70
2012,01,25,09,37,5.50
2012,01,25,09,38,4.70
2012,01,25,09,39,4.70
2012,01,25,09,40,4.40
2012,01,25,09,41,7.20
2012,01,25,09,42,6.80
2012,01,25,09,43,4.40
2012,01,25,09,44,4.70
2012,01,25,09,45,4.10
2012,01,25,09,46,3.80
2012,01,25,09,47,4.90
2012,01,25,09,48,4.30
2012,01,25,09,49,1.30
2012,01,25,09,50,3.60
2012,01,25,09,51,1.90
2012,01,25,09,52,3.50
2012,01,25,09,53,3.20
2012,01,25,09,54,0.20
2012,01,25,09,55,2.70
2012,01,25,09,56,2.20
2012,01,25,09,57,5.10
2012,01,25,09,58,3.30
2012,01,25,09,59,6.70
2012,01,25,10,00,7.20
2012,01,25,10,01,5.70
2012,01,25,10,02,4.30
2012,01,25,10,03,3.90
2012,01,25,10,04,2.90
2012,01,25,10,05,4.00
2012,01,25,10,06,2.90
2012,01,25,10,07,4.70
2012,01,25,10,08,2.90
2012,01,25,10,09,3.00
2012,01,25,10,10,8.20
2012,01,25,10,11,9.60
2012,01,25,10,12,11.30
2012,01,25,10,13,10.50
2012,01,25,10,14,6.30
2012,01,25,10,15,9.70
2012,01,25,10,16,7.20
2012,01,25,10,17,7.20
2012,01,25,10,18,10.00
2012,01,25,10,19,8.80
2012,01,25,10,20,6.80
2012,01,25,10,21,7.50
2012,01,25,10,22,6.00
2012,01,25,10,23,7.60
2012,01,25,10,24,7.90
2012,01,25,10,25,3.70
2012,01,25,10,26,8.60
2012,01,25,10,27,8.70
2012,01,25,10,28,7.40
2012,01,25,10,29,6.40
2012,01,25,10,30,7.20
2012,01,25,10,31,7.70
2012,01,25,10,32,7.10
2012,01,25,10,33,9.20
2012,01,25,10,34,8.10
2012,01,25,10,35,8.20
2012,01,25,10,36,7.10
2012,01,25,10,37,6.00
2012,01,25,10,38,8.40
2012,01,25,10,39,3.50
2012,01,25,10,40,4.70
2012,01,25,10,41,0.30
2012,01,25,10,42,0.20
2012,01,25,10,43,0.00
2012,01,25,10,44,0.70
2012,01,25,10,45,6.40
2012,01,25,10,46,2.70
2012,01,25,10,47,1.30
2012,01,25,10,48,4.20
2012,01,25,10,49,3.20
2012,01,25,10,50,4.50
2012,01,25,10,51,2.70
2012,01,25,10,52,5.50
2012,01,25,10,53,4.10
2012,01,25,10,54,1.00
2012,01,25,10,55,0.00
2012,01,25,10,56,0.10
2012,01,25,10,57,0.10
2012,01,25,10,58,0.60
2012,01,25,10,59,0.00
2012,01,25,11,00,0.00
2012,01,25,11,01,0.60
2012,01,25,11,02,0.00
2012,01,25,11,03,1.00
2012,01,25,11,04,0.40
2012,01,25,11,05,0.00
2012,01,25,11,06,0.00
2012,01,25,11,07,0.00
2012,01,25,11,08,0.00
2012,01,25,11,09,1.20
2012,01,25,11,10,0.10
2012,01,25,11,11,0.10
2012,01,25,11,12,0.00
2012,01,25,11,13,0.00
2012,01,25,11,14,0.00
2012,01,25,11,15,0.00
2012,01,25,11,16,0.00
2012,01,25,11,17,0.00
2012,01,25,11,18,0.20
2012,01,25,11,19,0.00
2012,01,25,11,20,0.00
2012,01,25,11,21,0.10
2012,01,25,11,22,0.20
2012,01,25,11,23,1.70
2012,01,25,11,24,3.20
2012,01,25,11,25,0.20
2012,01,25,11,26,0.50
2012,01,25,11,27,0.00
2012,01,25,11,28,1.00
2012,01,25,11,29,1.30
2012,01,25,11,30,1.00
2012,01,25,11,31,0.10
2012,01,25,11,32,0.00
2012,01,25,11,33,0.30
2012,01,25,11,34,1.80
2012,01,25,11,35,0.10
2012,01,25,11,36,0.60
2012,01,25,11,37,2.20
2012,01,25,11,38,5.10
2012,01,25,11,39,1.90
2012,01,25,11,40,0.60
2012,01,25,11,41,2.50
2012,01,25,11,42,1.00
2012,01,25,11,43,2.00
2012,01,25,11,44,1.60
2012,01,25,11,45,1.50
2012,01,25,11,46,0.70
2012,01,25,11,47,1.00
2012,01,25,11,48,0.60
2012,01,25,11,49,4.90
2012,01,25,11,50,4.20
2012,01,25,11,51,1.20
2012,01,25,11,52,0.00
2012,01,25,11,53,0.00
2012,01,25,11,54,0.20
2012,01,25,11,55,1.50
2012,01,25,11,56,0.60
2012,01,25,11,57,0.10
2012,01,25,11,58,0.00
2012,01,25,11,59,1.00
2012,01,25,12,00,4.00
2012,01,25,12,01,5.80
2012,01,25,12,02,7.10
2012,01,25,12,03,7.00
2012,01,25,12,04,3.70
2012,01,25,12,05,1.90
2012,01,25,12,06,1.80
2012,01,25,12,07,0.00
2012,01,25,12,08,0.00
2012,01,25,12,09,0.00
2012,01,25,12,10,0.30
2012,01,25,12,11,2.50
2012,01,25,12,12,2.20
2012,01,25,12,13,0.30
2012,01,25,12,14,0.30
2012,01,25,12,15,2.00
2012,01,25,12,16,1.50
2012,01,25,12,17,0.10
2012,01,25,12,18,1.10
2012,01,25,12,19,1.00
2012,01,25,12,20,3.30
2012,01,25,12,21,2.50
2012,01,25,12,22,1.00
2012,01,25,12,23,1.30
2012,01,25,12,24,2.40
2012,01,25,12,25,3.30
2012,01,25,12,26,4.00
2012,01,25,12,27,4.30
2012,01,25,12,28,2.50
2012,01,25,12,29,2.50
2012,01,25,12,30,0.80
2012,01,25,12,31,2.00
2012,01,25,12,32,0.60
2012,01,25,12,33,0.10
2012,01,25,12,34,0.00
2012,01,25,12,35,1.70
2012,01,25,12,36,2.10
2012,01,25,12,37,5.20
2012,01,25,12,38,7.90
2012,01,25,12,39,3.90
2012,01,25,12,40,4.80
2012,01,25,12,41,3.90
2012,01,25,12,42,3.20
2012,01,25,12,43,6.20
2012,01,25,12,44,5.20
2012,01,25,12,45,3.50
2012,01,25,12,46,2.10
2012,01,25,12,47,7.90
2012,01,25,12,48,6.90
2012,01,25,12,49,6.60
2012,01,25,12,50,7.40
2012,01,25,12,51,4.60
2012,01,25,12,52,8.10
2012,01,25,12,53,4.90
2012,01,25,12,54,2.30
2012,01,25,12,55,5.80
2012,01,25,12,56,2.70
2012,01,25,12,57,2.70
2012,01,25,12,58,5.40
2012,01,25,12,59,6.20
2012,01,25,13,00,5.60
2012,01,25,13,01,2.70
2012,01,25,13,02,3.50
2012,01,25,13,03,4.60
2012,01,25,13,04,3.60
2012,01,25,13,05,3.40
2012,01,25,13,06,2.10
2012,01,25,13,07,0.30
2012,01,25,13,08,0.20
2012,01,25,13,09,0.80
2012,01,25,13,10,2.50
2012,01,25,13,11,1.90
2012,01,25,13,12,0.50
2012,01,25,13,13,0.50
2012,01,25,13,14,0.40
2012,01,25,13,15,0.00
2012,01,25,13,16,4.30
2012,01,25,13,17,3.40
2012,01,25,13,18,4.40
2012,01,25,13,19,4.80
2012,01,25,13,20,3.90
2012,01,25,13,21,3.10
2012,01,25,13,22,0.90
2012,01,25,13,23,3.20
2012,01,25,13,24,1.00
2012,01,25,13,25,1.80
2012,01,25,13,26,1.30
2012,01,25,13,27,8.10
2012,01,25,13,28,4.90
2012,01,25,13,29,5.40
2012,01,25,13,30,2.30
2012,01,25,13,31,1.00
2012,01,25,13,32,0.20
2012,01,25,13,33,0.00
2012,01,25,13,34,1.20
2012,01,25,13,35,2.80
2012,01,25,13,36,0.40
2012,01,25,13,37,0.80
2012,01,25,13,38,4.80
2012,01,25,13,39,5.50
2012,01,25,13,40,7.50
2012,01,25,13,41,10.90
2012,01,25,13,42,7.20
2012,01,25,13,43,6.80
2012,01,25,13,44,7.50
2012,01,25,13,45,8.90
2012,01,25,13,46,8.00
2012,01,25,13,47,2.60
2012,01,25,13,48,2.70
2012,01,25,13,49,4.00
2012,01,25,13,50,4.30
2012,01,25,13,51,6.40
2012,01,25,13,52,4.80
2012,01,25,13,53,5.40
2012,01,25,13,54,3.70
2012,01,25,13,55,1.10
2012,01,25,13,56,2.40
2012,01,25,13,57,2.80
2012,01,25,13,58,3.60
2012,01,25,13,59,6.20
2012,01,25,14,00,7.10
2012,01,25,14,01,4.40
2012,01,25,14,02,6.30
2012,01,25,14,03,5.30
2012,01,25,14,04,2.30
2012,01,25,14,05,5.00
2012,01,25,14,06,4.80
2012,01,25,14,07,8.10
2012,01,25,14,08,11.50
2012,01,25,14,09,7.40
2012,01,25,14,10,5.20
2012,01,25,14,11,1.30
2012,01,25,14,12,5.10
2012,01,25,14,13,5.60
2012,01,25,14,14,4.80
2012,01,25,14,15,2.50
2012,01,25,14,16,5.30
2012,01,25,14,17,3.90
2012,01,25,14,18,3.70
2012,01,25,14,19,2.00
2012,01,25,14,20,3.70
2012,01,25,14,21,2.80
2012,01,25,14,22,4.20
2012,01,25,14,23,7.60
2012,01,25,14,24,7.80
2012,01,25,14,25,6.80
2012,01,25,14,26,2.90
2012,01,25,14,27,2.80
2012,01,25,14,28,4.20
2012,01,25,14,29,2.30
2012,01,25,14,30,0.10
2012,01,25,14,31,0.00
2012,01,25,14,32,0.00
2012,01,25,14,33,1.50
2012,01,25,14,34,3.70
2012,01,25,14,35,0.70
2012,01,25,14,36,1.80
2012,01,25,14,37,2.60
2012,01,25,14,38,0.50
2012,01,25,14,39,2.20
2012,01,25,14,40,4.10
2012,01,25,14,41,4.90
2012,01,25,14,42,0.90
2012,01,25,14,43,0.00
2012,01,25,14,44,0.00
2012,01,25,14,45,1.10
2012,01,25,14,46,3.50
2012,01,25,14,47,0.40
2012,01,25,14,48,1.80
2012,01,25,14,49,5.10
2012,01,25,14,50,2.70
2012,01,25,14,51,3.70
2012,01,25,14,52,3.30
2012,01,25,14,53,1.90
2012,01,25,14,54,1.20
2012,01,25,14,55,1.80
2012,01,25,14,56,1.60
2012,01,25,14,57,1.40
2012,01,25,14,58,1.30
2012,01,25,14,59,4.80
2012,01,25,15,00,4.60
2012,01,25,15,01,3.40
2012,01,25,15,02,3.70
2012,01,25,15,03,2.80
2012,01,25,15,04,3.70
2012,01,25,15,05,3.30
2012,01,25,15,06,4.20
2012,01,25,15,07,2.80
2012,01,25,15,08,3.30
2012,01,25,15,09,3.80
2012,01,25,15,10,2.40
2012,01,25,15,11,2.00
2012,01,25,15,12,2.10
2012,01,25,15,13,0.00
2012,01,25,15,14,0.00
2012,01,25,15,15,0.00
2012,01,25,15,16,0.00
2012,01,25,15,17,0.00
2012,01,25,15,18,0.00
2012,01,25,15,19,0.00
2012,01,25,15,20,1.20
2012,01,25,15,21,2.30
2012,01,25,15,22,1.00
2012,01,25,15,23,0.50
2012,01,25,15,24,2.60
2012,01,25,15,25,3.10
2012,01,25,15,26,1.60
2012,01,25,15,27,1.30
2012,01,25,15,28,2.90
2012,01,25,15,29,4.70
2012,01,25,15,30,1.50
2012,01,25,15,31,0.00
2012,01,25,15,32,2.10
2012,01,25,15,33,2.30
2012,01,25,15,34,2.80
2012,01,25,15,35,2.10
2012,01,25,15,36,2.50
2012,01,25,15,37,1.30
2012,01,25,15,38,3.40
2012,01,25,15,39,2.60
2012,01,25,15,40,1.70
2012,01,25,15,41,3.10
2012,01,25,15,42,2.60
2012,01,25,15,43,3.10
2012,01,25,15,44,1.40
2012,01,25,15,45,0.00
2012,01,25,15,46,2.40
2012,01,25,15,47,1.30
2012,01,25,15,48,0.10
2012,01,25,15,49,0.10
2012,01,25,15,50,1.00
2012,01,25,15,51,0.20
2012,01,25,15,52,0.40
2012,01,25,15,53,1.40
2012,01,25,15,54,1.60
2012,01,25,15,55,4.10
2012,01,25,15,56,2.60
2012,01,25,15,57,2.30
2012,01,25,15,58,3.10
2012,01,25,15,59,1.60
2012,01,25,16,00,5.20
2012,01,25,16,01,6.30
2012,01,25,16,02,6.60
2012,01,25,16,03,2.50
2012,01,25,16,04,5.70
2012,01,25,16,05,4.30
2012,01,25,16,06,4.00
2012,01,25,16,07,4.30
2012,01,25,16,08,6.70
2012,01,25,16,09,4.70
2012,01,25,16,10,8.50
2012,01,25,16,11,12.80
2012,01,25,16,12,12.40
2012,01,25,16,13,10.50
2012,01,25,16,14,2.20
2012,01,25,16,15,4.80
2012,01,25,16,16,4.30
2012,01,25,16,17,4.70
2012,01,25,16,18,5.10
2012,01,25,16,19,5.90
2012,01,25,16,20,3.40
2012,01,25,16,21,6.10
2012,01,25,16,22,7.40
2012,01,25,16,23,4.40
2012,01,25,16,24,8.80
2012,01,25,16,25,6.40
2012,01,25,16,26,7.10
2012,01,25,16,27,8.10
2012,01,25,16,28,10.40
2012,01,25,16,29,6.00
2012,01,25,16,30,9.40
2012,01,25,16,31,7.40
2012,01,25,16,32,4.50
2012,01,25,16,33,4.70
2012,01,25,16,34,4.50
2012,01,25,16,35,1.70
2012,01,25,16,36,3.50
2012,01,25,16,37,5.10
2012,01,25,16,38,6.00
2012,01,25,16,39,5.40
2012,01,25,16,40,5.90
2012,01,25,16,41,10.00
2012,01,25,16,42,7.30
2012,01,25,16,43,7.60
2012,01,25,16,44,7.90
2012,01,25,16,45,5.70
2012,01,25,16,46,9.60
2012,01,25,16,47,12.50
2012,01,25,16,48,6.80
2012,01,25,16,49,6.50
2012,01,25,16,50,4.40
2012,01,25,16,51,8.20
2012,01,25,16,52,4.70
2012,01,25,16,53,7.30
2012,01,25,16,54,7.70
2012,01,25,16,55,13.90
2012,01,25,16,56,7.40
2012,01,25,16,57,12.50
2012,01,25,16,58,10.60
2012,01,25,16,59,6.00
2012,01,25,17,00,10.90
2012,01,25,17,01,8.30
2012,01,25,17,02,8.30
2012,01,25,17,03,9.20
2012,01,25,17,04,7.60
2012,01,25,17,05,9.40
2012,01,25,17,06,8.10
2012,01,25,17,07,6.70
2012,01,25,17,08,6.40
2012,01,25,17,09,6.80
2012,01,25,17,10,9.80
2012,01,25,17,11,5.70
2012,01,25,17,12,10.20
2012,01,25,17,13,5.50
2012,01,25,17,14,4.60
2012,01,25,17,15,4.10
2012,01,25,17,16,8.90
2012,01,25,17,17,1.00
2012,01,25,17,18,4.30
2012,01,25,17,19,9.30
2012,01,25,17,20,10.80
2012,01,25,17,21,8.00
2012,01,25,17,22,7.90
2012,01,25,17,23,7.80
2012,01,25,17,24,8.50
2012,01,25,17,25,10.00
2012,01,25,17,26,8.00
2012,01,25,17,27,7.30
2012,01,25,17,28,10.10
2012,01,25,17,29,7.70
2012,01,25,17,30,9.40
2012,01,25,17,31,8.90
2012,01,25,17,32,10.20
2012,01,25,17,33,8.50
2012,01,25,17,34,5.80
2012,01,25,17,35,7.50
2012,01,25,17,36,8.80
2012,01,25,17,37,11.20
2012,01,25,17,38,10.10
2012,01,25,17,39,8.70
2012,01,25,17,40,8.90
2012,01,25,17,41,8.90
2012,01,25,17,42,10.80
2012,01,25,17,43,8.40
2012,01,25,17,44,9.30
2012,01,25,17,45,8.90
2012,01,25,17,46,7.60
2012,01,25,17,47,10.70
2012,01,25,17,48,8.70
2012,01,25,17,49,7.20
2012,01,25,17,50,11.20
2012,01,25,17,51,10.50
2012,01,25,17,52,11.00
2012,01,25,17,53,12.90
2012,01,25,17,54,8.10
2012,01,25,17,55,10.50